PST,Max TemperatureF,Mean TemperatureF,Min TemperatureF,Max Dew PointF,MeanDew PointF,Min DewpointF,Max Humidity, Mean Humidity, Min Humidity, Max Sea Level PressureIn, Mean Sea Level PressureIn, Min Sea Level PressureIn, Max VisibilityMiles, Mean VisibilityMiles, Min VisibilityMiles, Max Wind SpeedMPH, Mean Wind SpeedMPH, Max Gust SpeedMPH,PrecipitationIn, CloudCover, Events, WindDirDegrees
2013-1-1,44,42,40,40,37,35,90,81,67,30.35,30.19,30.02,,,,30,18,40,0.00,,,155
2013-1-2,46,43,40,45,43,40,95,90,79,30.01,29.90,29.83,,,,38,30,47,0.39,,,166
2013-1-3,46,44,42,44,41,36,95,85,63,29.93,29.85,29.79,,,,32,23,41,0.43,,,156
2013-1-4,45,43,41,42,39,37,91,83,70,30.08,29.99,29.78,,,,25,14,47,0.08,,,161
2013-1-5,44,42,39,41,39,37,94,86,76,29.89,29.72,29.63,,,,31,20,47,0.28,,,154
2013-1-6,44,42,41,42,39,36,95,84,70,29.82,29.70,29.49,,,,28,18,38,0.08,,,183
2013-1-7,46,43,40,45,38,33,96,79,59,29.91,29.68,29.47,,,,33,19,41,0.04,,,249
2013-1-8,44,40,37,38,36,34,94,82,70,29.91,29.69,29.43,,,,28,13,21,0.20,,,149
2013-1-9,41,39,37,36,32,29,81,70,57,30.09,29.77,29.46,,,,31,27,37,0.00,,,359
2013-1-10,39,37,35,32,30,29,80,73,63,30.27,30.22,30.11,,,,28,16,32,0.00,,,24
2013-1-11,38,36,34,33,31,28,86,80,67,30.29,30.26,30.23,,,,15,8,23,0.00,,,122
2013-1-12,39,37,35,37,35,31,94,89,83,30.42,30.37,30.27,,,,14,11,22,0.00,,,156
2013-1-13,41,39,37,40,39,38,97,96,92,30.42,30.41,30.38,,,,16,11,20,0.02,,,159
2013-1-14,46,44,41,45,43,41,99,94,87,30.52,30.48,30.43,,,,15,8,,0.02,,,194
2013-1-15,46,44,42,43,41,39,93,88,81,30.52,30.48,30.44,,,,31,23,38,0.00,,,169
2013-1-16,46,44,43,45,44,42,95,93,89,30.48,30.37,30.19,,,,36,13,45,0.00,,,173
2013-1-17,46,44,43,44,43,41,94,91,88,30.19,30.02,29.95,,,,43,34,52,0.00,,,183
2013-1-18,46,44,42,43,40,36,93,87,72,30.25,30.18,30.03,,,,20,12,,0.00,,,341
2013-1-19,47,44,41,43,42,41,96,89,82,30.26,30.24,30.23,,,,22,15,28,0.00,,,160
2013-1-20,45,44,43,41,40,39,91,85,76,30.29,30.26,30.23,,,,24,14,28,0.00,,,159
2013-1-21,44,43,42,40,39,37,92,84,76,30.25,30.05,29.87,,,,24,11,30,0.00,,,155
2013-1-22,46,44,42,42,39,38,91,81,70,29.86,29.75,29.64,,,,40,19,51,0.20,,,151
2013-1-23,45,44,44,44,39,36,93,79,62,29.82,29.73,29.66,,,,29,21,36,0.04,,,191
2013-1-24,46,42,38,42,39,36,93,86,75,29.84,29.61,29.37,,,,43,27,61,0.24,,,166
2013-1-25,46,42,38,42,41,39,95,88,76,29.67,29.57,29.50,,,,37,28,47,0.16,,,165
2013-1-26,44,42,41,41,38,35,95,82,67,29.84,29.79,29.68,,,,16,8,,0.08,,,277
2013-1-27,42,40,36,37,33,29,89,76,55,29.96,29.89,29.81,,,,25,15,29,0.04,,,299
2013-1-28,41,38,35,37,35,32,93,85,70,30.07,29.94,29.87,,,,22,14,,0.12,,,289
2013-1-29,46,41,36,44,40,29,96,89,67,30.18,30.08,30.00,,,,32,15,43,0.02,,,190
2013-1-30,46,44,42,45,42,40,96,93,83,30.24,30.14,29.91,,,,31,11,39,0.31,,,153
2013-1-31,46,44,43,45,43,42,96,91,80,30.17,30.05,29.91,,,,28,18,,0.08,,,180